Погода в Заозерье

Россия / Республика Коми     60°54′33″N   50°18′08″E
темп.,
°C
ветер,
м/с
пор.,
м/с
влажн.,
%
обл.,
%
осадки,
мм/ч
давл.,
гПа
погр.,
м
29 июля, чт
чт2900:00+11зюз3117493 0.0 1008236
03:00+12зюз3126453 0.0 1007366
06:00+13зсз136723 0.0 1006173
09:00+18зюз245138 0.0 1005541
12:00+21з254523 0.0 10041187
15:00+23з2744100 0.0 10021823
18:00+19юв1168100 0.0 100128
21:00+14юз3798100 3.3 1001228
30 июля, пт
пт3000:00+14ююз2599100 2.5 1000202
03:00+13в12100100 7.3 99873
06:00+14всв2499100 5.0 998229
09:00+13всв2699100 7.6 998334
12:00+17всв238970 0.6 1000546
15:00+19ю017280 0.9 1001844
18:00+18ю128525 0.4 1002319
21:00+14ююв24975 0.6 100271
31 июля, сб
сб3100:00+13ю269875 0.1 1002129
03:00+14ююв2699100 0.9 1001172
06:00+15ююз31197100 0.1 1001407
09:00+17ю3997100 0.6 1001447
12:00+17ююв3895100 0.5 999535
15:00+18юз379575 7.8 997431
18:00+18з4896100 4.4 997436
21:00+14з289951 6.7 999288
1 августа, вс
вс100:00+12зюз289943 0.0 999192
03:00+12юз289940 0.0 1001224
06:00+14зюз389747 0.4 1002335
09:00+20з36665 0.4 1003729
12:00+23зюз464539 0.0 10042160
15:00+21зюз3859100 0.0 1005482
18:00+19зюз487248 0.1 1006483
21:00+15юз249071 0.1 100770
2 августа, пн
пн200:00+16ююз2681100 0.0 1007136
03:00+13ююз269273 0.0 1007114
06:00+17ююз397683 0.0 1007318
09:00+22юз465787 0.0 10061016
12:00+20зюз368282 0.5 1006579
15:00+22юз4671100 1.0 10061108
18:00+22зюз3672100 0.1 1006895
21:00+16ююз229611 0.1 100626